Regional Weather Roundup
Issued by NWS Sterling, VA

Home | Current Version | Previous Version | Text Only | Print | Product List | Glossary Off
Versions: 1 2 3 4 5 6 7 8 9 10 11 12 13 14 15 16 17 18 19 20 21 22 23 24 25 26 27 28 29 30 31 32 33 34 35 36 37 38 39 40 41 42 43 44 45 46 47 48 49 50

000
ASUS41 KLWX 210810
RWRLWX

REGIONAL WEATHER ROUNDUP
NATIONAL WEATHER SERVICE BALTIMORE MD/WASHINGTON DC
400 AM EDT TUE OCT 21 2014

Note: "FAIR" indicates few or no clouds below 12,000 feet
with no significant weather and/or obstructions to visibility.
 TC=TEMPERATURE CELSIUS

 * =Non NWS site. Station does not report precipitation (e.g. rain,
    snow, etc.), thunder, or fog.

DCZ001-MDZ009-015-VAZ040>042-051-053>054-210900-
WASHINGTON METRO

CITY           SKY/WX    TMP DP  RH WIND       PRES   REMARKS
WASHINGTON NAT MOCLDY    58  48  69 SW6       29.88F
DULLES         MOCLDY    49  47  93 CALM      29.87F
ANDREWS AFB    MOCLDY    55  48  77 S6        29.87F
FT BELVOIR     CLOUDY    51  50  97 E1        29.88F
QUANTICO       MOCLDY    56  46  69 SW5       29.89F
COLLEGE PARK*  MOCLDY    52  52 100 CALM      29.87F
LEESBURG*      MOCLDY    52  52 100 CALM      29.88F
MANASSAS*      MOCLDY    50  48  93 CALM      29.87F
GAITHERSBURG*  MOCLDY    52  48  87 CALM      29.91S

$$

MDZ006>007-011-014-210900-
BALTIMORE METRO

CITY           SKY/WX    TMP DP  RH WIND       PRES   REMARKS
BWI AIRPORT    MOCLDY    53  49  86 CALM      29.87F
MD SCIENCE CTR   N/A     56  48  74 MISG      29.88F
MARTIN STATE   MOCLDY    54  54 100 CALM      29.89S
ANNAPOLIS      MOCLDY    56  48  74 CALM      29.87F
FORT MEADE*    MOCLDY    48  46  93 CALM      29.89F

$$

MDZ012-015-019>023-210900-
MARYLAND EASTERN SHORE

CITY           SKY/WX    TMP DP  RH WIND       PRES   REMARKS
OCEAN CITY     CLOUDY    53  50  89 CALM      29.90F
SALISBURY      CLOUDY    58  51  78 CALM      29.90F
BAY BRIDGE AP*   N/A     59  50  72 S5        29.88F
CAMBRIDGE*     CLOUDY    55  52  88 CALM      29.89F
EASTON*        DRIZZLE   57  54  89 SE6       29.92F

$$

MDZ017>025-210900-
SOUTHERN MARYLAND

CITY           SKY/WX    TMP DP  RH WIND       PRES   REMARKS
PATUXENT RIVER CLOUDY    60  48  64 SW7       29.88F
ST INIGOES     CLOUDY    57  50  77 CALM      29.88F
LEONARDTOWN*   CLOUDY    57  46  67 SW5       29.90F

$$

MDZ003>005-210900-
NORTH CENTRAL MARYLAND

CITY           SKY/WX    TMP DP  RH WIND       PRES   REMARKS
FREDERICK*     CLOUDY    55  50  82 CALM      29.89F
HAGERSTOWN APT PTCLDY    52  47  83 W3        29.86F
WESTMINSTER*   CLOUDY    52  48  87 S3        29.87F

$$

MDZ501>502-210900-
WESTERN MARYLAND

CITY           SKY/WX    TMP DP  RH WIND       PRES   REMARKS
OAKLAND*       CLOUDY    45 N/A N/A SW10G16   29.86F
CUMBERLAND*    MOCLDY    46  46 100 CALM      29.91F

$$

VAZ025>031-210900-
SHENANDOAH VALLEY

CITY           SKY/WX    TMP DP  RH WIND       PRES   REMARKS
WINCHESTER*    FOG       46  43  87 CALM      29.87S VSB 1/4
FRONT ROYAL*   FAIR      52  48  87 SW5       29.86F
LURAY*         FAIR      52  52 100 CALM      29.87F
NEW MARKET*    FAIR      46  45  97 CALM      29.88F
STAUNTON*      CLEAR     49  44  81 CALM      29.91S
WAYNESBORO*    FAIR      50  44  80 CALM      29.89F

$$

WVZ021-048>050-054>055-210900-
EASTERN WEST VIRGINIA PANHANDLE

CITY           SKY/WX    TMP DP  RH WIND       PRES   REMARKS
MARTINSBURG    PTCLDY    48  45  89 CALM      29.86F FOG
PETERSBURG*    MOCLDY   N/A N/A N/A CALM      29.88F

$$

VAZ036>039-050-210900-
CENTRAL FOOTHILLS

CITY           SKY/WX    TMP DP  RH WIND       PRES   REMARKS
CHARLOTTESVILL MOCLDY    53  49  86 S5        29.88F
CULPEPER*      PTCLDY    48  46  93 N3        29.88F
ORANGE*        PTCLDY    50  46  87 S3        29.89F
GORDONSVILLE*  FAIR      48  47  95 CALM      29.88F
WARRENTON*     FAIR      47  47 100 CALM      29.87S

$$

VAZ055>057-210900-
NORTH AND CENTRAL PIEDMONT

CITY           SKY/WX    TMP DP  RH WIND       PRES   REMARKS
FREDERICKSBRG* MOCLDY    55  49  81 SW3       29.88S
STAFFORD*      MOCLDY    49  49 100 CALM      29.92S

$$

NCZ024-NYZ072-PAZ021-071-VAZ022-071-210900-
OTHER REGIONAL OBSERVATIONS

CITY           SKY/WX    TMP DP  RH WIND       PRES   REMARKS
NEW YORK CITY  MOCLDY    58  43  57 CALM      29.93F
PHILADELPHIA   CLOUDY    54  47  77 CALM      29.90F
PITTSBURGH     CLOUDY    50  49  96 SW7       29.84F
ROANOKE        PTCLDY    53  45  74 W8        29.93F
RICHMOND       CLOUDY    57  46  66 CALM      29.89F
RALEIGH        CLOUDY    57  50  77 CALM      29.92F

$$

ANZ530>537-210900-
MARINE OBSERVATIONS

STATION/POSITION TIME  TEMP    WIND        PRES
                       AIR SEA DIR/SP/G
                 (UTC) (F)     (DEG/KT/KT) (MB)
THOMAS PT LIGHT  0800   61 64  210/ 15/ 17 1012.5F
BALT KEY BRIDGE  0800   58     240/  4/  5 1011.4F
COVE POINT       0800   60     220/ 10/ 11 1012.0R
LEWISETTA        0800   60 62  220/  7/  8 1011.7F
SOLOMONS ISLAND  0800      65                N/A
PINEY POINT      0800          220/ 10/ 11   N/A

$$



USA.gov is the U.S. government's official web portal to all federal, state and local government web resources and services.